Regional Weather Roundup
Issued by NWS

Home | Current Version | Previous Version | Graphics & Text | Print | Product List | Glossary Off
Versions: 1 2 3 4 5 6 7 8 9 10 11 12 13 14 15 16 17 18 19 20 21 22 23 24 25 26 27 28 29 30 31 32 33 34 35 36 37 38 39 40 41 42 43 44 45 46 47 48 49 50

039
ASUS43 KMKX 031900
RWRWI

WISCONSIN REGIONAL WEATHER ROUNDUP
NATIONAL WEATHER SERVICE MILWAUKEE/SULLIVAN WI
200 PM CDT TUE MAY 03 2016

NOTE: "FAIR" INDICATES FEW OR NO CLOUDS BELOW 12,000 FEET WITH NO
SIGNIFICANT WEATHER AND/OR OBSTRUCTIONS TO VISIBILITY.

WIZ001-002-006>008-014>016-023>028-032000-
NORTHWEST WISCONSIN

CITY           SKY/WX    TMP DP  RH WIND       PRES   REMARKS
SUPERIOR ARPT  PTSUNNY   70  40  33 W18G26    29.67F
ASHLAND        CLOUDY    56  43  61 N13G23    29.70R
HAYWARD        LGT RAIN  64  33  31 SW18G32   29.68F
SIREN          CLOUDY    65  33  30 W14G23    29.72F
CUMBERLAND     CLOUDY    63  34  34 W16G29    29.74F
RICE LAKE      CLOUDY    68  32  26 W22G30    29.76F
CHETEK         CLOUDY    66  37  34 W16G24    29.74F
LADYSMITH      CLOUDY    66  35  31 W21G32    29.74F
EAU CLAIRE     NOT AVBL
MENOMONIE      PTSUNNY   70  36  28 SW18G24   29.78F
NEW RICHMOND   PTSUNNY   68  35  29 W20G31    29.77F
OSCEOLA        MOSUNNY   69  36  29 W20G26    29.79F
$$

WIZ003>005-009-010-017-018-032000-
NORTH CENTRAL WISCONSIN

CITY           SKY/WX    TMP DP  RH WIND       PRES   REMARKS
MANITOWISH WTR CLOUDY    54  39  56 W9G17     29.71F
ARBOR VITAE    LGT RAIN  57  40  54 W14G20    29.71F
WOODRUFF       LGT RAIN  57  40  54 W14G20    29.71F
RHINELANDER    CLOUDY    63  33  32 W14G26    29.70F
EAGLE RIVER    LGT RAIN  56  36  47 NW16G29   29.71F
LAND O LAKES   LGT RAIN  53  41  65 W5        29.72F
PHILLIPS       CLOUDY    62  32  32 W10G24    29.70F
TOMAHAWK       CLOUDY    63  31  29 W15G24    29.71F
MEDFORD        CLOUDY    64  35  35 W18G26    29.74F
MERRILL        PTSUNNY   66  36  32 W22       29.72F
$$

WIZ029-030-035-036-043>047-032000-
CENTRAL WISCONSIN

CITY           SKY/WX    TMP DP  RH WIND       PRES   REMARKS
WAUSAU         PTSUNNY   69  32  25 W21G29    29.70F
MOSINEE        PTSUNNY   64  30  27 W14G28    29.74F
MARSHFIELD     PTSUNNY   67  30  25 W17G24    29.74F
STEVENS POINT  MOSUNNY   65  32  28 W10G22    29.76F
WAUPACA        PTSUNNY   69  29  22 SW13G20   29.76F
WAUTOMA        PTSUNNY   68  33  27 W16G26    29.77
WISC RAPIDS    PTSUNNY   68  29  23 W15G22    29.77F
CAMP DOUGLAS   NOT AVBL
$$

WIZ011>013-019>022-031-037>040-048>050-032000-
NORTHEAST WISCONSIN

CITY           SKY/WX    TMP DP  RH WIND       PRES   REMARKS
ANTIGO         CLOUDY    63  36  36 W17G24    29.72F
SHAWANO        CLOUDY    71  32  24 W10G18    29.72F
OCONTO         CLOUDY    68  34  28 W13G28    29.70F
STURGEON BAY   CLOUDY    68  36  30 SW13G23   29.72F
GREEN BAY      CLOUDY    68  35  29 W18G28    29.72F
MANITOWOC      NOT AVBL
APPLETON       PTSUNNY   68  27  21 W18G25    29.74F
CLINTONVILLE   CLOUDY    70  32  24 W14G20    29.73F
OSHKOSH        PTSUNNY   67  34  29 W14       29.76F
$$

WIZ032>034-041-042-053>061-032000-
SOUTHWEST WISCONSIN

CITY           SKY/WX    TMP DP  RH WIND       PRES   REMARKS
LA CROSSE      PTSUNNY   72  38  29 W10G23    29.80F
SPARTA         CLOUDY    67  34  30 W10G21    29.81F
VIROQUA        PTSUNNY   66  35  31 W16G23    29.84F
BOSCOBEL       LGT RAIN  68  37  32 W16G22    29.84F
PRAIRIE DU CHI PTSUNNY   67  35  31 W10G21    29.86F
PLATTEVILLE    PTSUNNY   65  38  37 W16G22    29.88F
$$

WIZ056-057-062-063-064-067-068-032000-
SOUTH CENTRAL WISCONSIN

CITY           SKY/WX    TMP DP  RH WIND       PRES   REMARKS
REEDSBURG      PTSUNNY   64  38  38 W13       29.82F
BARABOO/DELLS  PTSUNNY   68  33  27 W16       29.81F
LONE ROCK      NOT AVBL
MINERAL POINT  MOSUNNY   68  32  26 W20G25    29.86F
MADISON        PTSUNNY   67  36  31 W12G18    29.82F
MIDDLETON      PTSUNNY   65  37  35 W16       29.84F
WATERTOWN      PTSUNNY   65  37  36 W12G17    29.83F
MONROE         SUNNY     64  32  29 W18       29.87F
JANESVILLE     PTSUNNY   68  36  30 W12G20    29.85F
$$

WIZ051-052-058>065-066-070>072-032000-
SOUTHEAST WISCONSIN

CITY           SKY/WX    TMP DP  RH WIND       PRES   REMARKS
MILWAUKEE      CLOUDY    65  32  29 W10G22    29.82F
WAUKESHA       PTSUNNY   63  34  34 W18       29.83F
MILWAUKEE/TIMM NOT AVBL
RACINE         CLOUDY    67  34  29 W9        29.84F
BURLINGTON     MOSUNNY   64  34  33 W15       29.85F
KENOSHA        CLOUDY    67  40  37 W14       29.84F
FOND DU LAC    CLOUDY    66  34  30 W15G21    29.78F
SHEBOYGAN      CLOUDY    66  35  31 W15       29.78F
WEST BEND      PTSUNNY   64  32  29 W15G22    29.81F
JUNEAU         PTSUNNY   64  34  33 W18G24    29.83F
$$

LSZ147-162-032000-
LAKE SUPERIOR

STATION/POSITION TIME  TEMP    WIND        PRES    WAVE
                       AIR SEA DIR/SP/G            HT/PER
                 (UTC) (F)     (DEG/KT/KT) (MB)    (FT/S)
W MID LAKE BUOY  1750   42 37  240/ 14/ 17 1004.5F   3/ 5
DEVILS ISLAND    1800   50     270/ 14/ 15 1005.6F
SAXON HARBOR     1800   58     200/ 13/ 17 1005.1F
$$

LMZ867-665-643>646-032000-
LAKE MICHIGAN

STATION/POSITION TIME  TEMP    WIND        PRES    WAVE
                       AIR SEA DIR/SP/G            HT/PER
                 (UTC) (F)     (DEG/KT/KT) (MB)    (FT/S)
CHAMBERS ISLAND  1840   60     160/  5/  9 1005.4F
N MID LAKE BUOY  1750   41 39  180/ 16/ 17 1006.6F   2/ 3
NORTHPORT PIER   1800   68     230/ 10/ 15 1005.8F
ALGOMA LAKESHORE 1815          270/ 21/ 28   N/A
KEWAUNEE LAKESHO 1800   67     240/ 10/ 16 1007.3F
SHEBOYGAN LAKESH 1800   65     280/ 15/ 17 1009.4F
PORT WASHINGTON  1820   68     240/ 14/ 23 1010.2F
S MID LAKE BUOY  1750   45 42  180/ 10/ 12 1012.0F   0
KENOSHA   LAKESH 1800   53     160/  8/ 12 1011.2F
$$

TC  - TEMPERATURE IN CELSIUS
VSB - VISIBILITY IN STATUTE MILES
WCI - WIND CHILL INDEX
HX  - HEAT INDEX





USA.gov is the U.S. government's official web portal to all federal, state and local government web resources and services.